Location: Asheville, NC
(35.6000°N, 82.5500°W)
Time: 09:16:33
(UTC-05:00)

Vanguard 1 - Pass Details

Date: 13 December 2017
Orbit: 649 x 3834 km, 34.2° (Epoch: 21 January)

Event Time Altitude Azimuth Distance (km) Brightness Sun altitude
Rises 15:10:58 0° 284° (WNW) 6,127 14.5 19.3°
Reaches altitude 10° 15:15:54 10° 279° (W) 4,575 14.0 18.6°
Maximum altitude 15:26:21 45° 212° (SSW) 1,716 12.6 17.2°
Drops below altitude 10° 15:32:22 10° 140° (SE) 2,652 12.4 16.3°
Sets 15:34:30 0° 133° (SE) 3,383 12.8 16.0°
